Weather reports worldwide

Advertisment
Reus, Spain (8175): temperature & dewpoint: 10.12.2019 13:00:00 - 16.12.2019 13:00:00 (CET)Reus, Spain (8175): wind speed & gusts: 10.12.2019 13:00:00 - 16.12.2019 13:00:00 (CET)Reus, Spain (8175): wind direction: 10.12.2019 13:00:00 - 16.12.2019 13:00:00 (CET)Reus, Spain (8175): reduced air pressure: 10.12.2019 13:00:00 - 16.12.2019 13:00:00 (CET)Reus, Spain (8175): visibility: 10.12.2019 13:00:00 - 16.12.2019 13:00:00 (CET)
Date & Time tt [°C] td [°C] ff [km/h] ff [kn] fx [km/h] fx [kn] dd ppp [hPa] vv [km]
16.12.2019 13:00:00 14,3 11,2 9 5 - - E 1009,7 8
16.12.2019 12:00:00 13,7 10,9 9 5 - - ENE 1010,9 11
16.12.2019 11:00:00 12,6 10,3 11 6 - - NE 1011,8 7
16.12.2019 10:00:00 11,4 9,4 11 6 - - NNE 1011,9 15
16.12.2019 09:00:00 10,3 8,4 13 7 - - N 1011,7 22
16.12.2019 08:00:00 9,8 8,1 11 6 - - NNE 1011,7 30
16.12.2019 07:00:00 10,2 8,1 11 6 - - NNE 1011,5 30
16.12.2019 06:00:00 8,6 6,1 11 6 - - N 1011,7 30
16.12.2019 05:00:00 8,0 5,7 9 5 - - N 1012,0 30
16.12.2019 04:00:00 7,5 5,6 9 5 - - NNE 1011,9 30
16.12.2019 03:00:00 6,8 5,4 11 6 - - NE 1012,3 30
16.12.2019 02:00:00 7,8 5,3 9 5 - - NNE 1012,2 30
16.12.2019 01:00:00 8,4 6,2 13 7 - - N 1012,6 30
16.12.2019 00:00:00 8,3 5,8 13 7 - - NNE 1013,1 30
15.12.2019 23:00:00 7,6 6,3 8 4 - - NE 1013,3 30
15.12.2019 22:00:00 9,2 7,3 9 5 - - N 1013,4 30
15.12.2019 21:00:00 9,4 7,3 11 6 - - N 1013,3 30
15.12.2019 20:00:00 11,1 9,6 0 0 - - N 1013,1 30
15.12.2019 19:00:00 9,3 6,7 4 2 - - E 1013,0 30
15.12.2019 18:00:00 11,5 7,4 8 4 - - WSW 1012,4 30
15.12.2019 17:00:00 15,6 6,0 13 7 - - SSW 1012,3 30
15.12.2019 16:00:00 17,8 5,5 15 8 - - SW 1012,3 30
15.12.2019 15:00:00 18,7 6,8 13 7 - - SW 1012,4 30
15.12.2019 14:00:00 18,3 6,1 16 9 - - WSW 1012,8 30
15.12.2019 13:00:00 18,0 5,8 15 8 - - WSW 1013,3 30
15.12.2019 12:00:00 17,3 5,0 15 8 - - WNW 1013,9 30
15.12.2019 11:00:00 16,0 5,5 13 7 - - WSW 1014,5 30
15.12.2019 10:00:00 13,6 6,0 16 9 - - WSW 1014,1 30
15.12.2019 09:00:00 8,0 4,4 4 2 - - N 1014,0 30
15.12.2019 08:00:00 6,5 3,5 4 2 - - NNW 1013,6 30
15.12.2019 07:00:00 7,3 3,3 4 2 - - NNE 1013,1 30
15.12.2019 06:00:00 10,7 3,5 5 3 - - N 1012,8 30
15.12.2019 05:00:00 12,1 3,6 8 4 - - S 1012,8 30
15.12.2019 04:00:00 11,6 3,9 22 12 - - WSW 1013,3 30
15.12.2019 03:00:00 10,2 3,5 8 4 - - SSW 1014,0 30
15.12.2019 02:00:00 11,2 3,9 22 12 - - WSW 1014,0 30
15.12.2019 01:00:00 9,5 3,7 11 6 - - W 1014,7 30
15.12.2019 00:00:00 9,9 3,8 13 7 - - W 1015,4 30
14.12.2019 23:00:00 12,1 4,1 16 9 - - WNW 1015,3 30
14.12.2019 22:00:00 9,9 4,1 8 4 - - W 1015,6 30
14.12.2019 21:00:00 10,2 4,4 9 5 - - WSW 1015,7 30
14.12.2019 20:00:00 10,8 4,9 11 6 - - NNW 1015,3 30
14.12.2019 19:00:00 12,3 5,2 8 4 - - N 1014,8 30
14.12.2019 18:00:00 14,2 5,0 5 3 - - N 1014,2 30
14.12.2019 17:00:00 15,9 5,1 22 12 - - W 1013,9 30
14.12.2019 16:00:00 16,8 4,1 21 11 - - W 1013,4 30
14.12.2019 15:00:00 17,0 4,6 26 14 - - W 1012,9 30
14.12.2019 14:00:00 16,7 4,9 28 15 - - W 1013,9 30
14.12.2019 13:00:00 17,5 4,4 28 15 - - W 1014,7 30
14.12.2019 12:00:00 18,6 5,3 22 12 - - W 1014,7 30
14.12.2019 11:00:00 17,5 4,5 31 17 - - W 1013,8 30
14.12.2019 10:00:00 15,9 4,8 39 21 - - W 1013,0 30
14.12.2019 09:00:00 15,3 4,7 39 21 80 43 WNW 1011,3 30
14.12.2019 08:00:00 15,1 4,5 46 25 80 43 WNW 1010,7 30
14.12.2019 07:00:00 15,5 5,1 44 24 - - WNW 1010,0 30
14.12.2019 06:00:00 15,5 5,4 52 28 - - WNW 1009,2 30
14.12.2019 05:00:00 15,5 5,7 35 19 - - W 1010,0 30
14.12.2019 04:00:00 15,2 6,5 26 14 - - W 1010,5 30
14.12.2019 03:00:00 15,6 6,6 29 16 - - W 1009,9 30
14.12.2019 02:00:00 15,8 7,7 28 15 - - W 1009,5 30
14.12.2019 01:00:00 16,4 8,1 24 13 - - WSW 1009,4 30
14.12.2019 00:00:00 17,4 7,7 26 14 - - W 1008,1 30
13.12.2019 23:00:00 17,9 7,6 42 23 - - W 1007,2 30
13.12.2019 22:00:00 17,9 8,5 31 17 - - W 1006,8 30
13.12.2019 21:00:00 17,7 8,5 34 18 - - WSW 1006,3 30
13.12.2019 20:00:00 18,1 8,4 35 19 85 46 WSW 1005,9 30
13.12.2019 19:00:00 18,3 7,8 44 24 - - W 1004,2 30
13.12.2019 18:00:00 18,4 6,9 52 28 91 49 WNW 1003,1 30
13.12.2019 17:00:00 18,6 6,2 46 25 93 50 W 1002,5 30
13.12.2019 16:00:00 19,5 7,1 55 30 - - WNW 1001,8 30
13.12.2019 15:00:00 18,8 7,5 52 28 91 49 W 1000,7 30
13.12.2019 14:00:00 18,2 7,9 54 29 109 59 W 1000,4 30
13.12.2019 13:00:00 17,7 8,3 65 35 - - WNW 999,7 30
13.12.2019 12:00:00 17,2 8,5 67 36 94 51 W 1000,5 30
13.12.2019 11:00:00 16,2 9,1 70 38 100 54 W 1000,6 30
13.12.2019 10:00:00 15,9 9,5 55 30 - - WNW 1000,4 20
13.12.2019 09:00:00 15,5 9,5 54 29 93 50 WNW 1000,4 22
13.12.2019 08:00:00 15,8 8,8 50 27 78 42 WNW 999,7 30
13.12.2019 07:00:00 15,2 9,1 46 25 - - WNW 999,9 30
13.12.2019 06:00:00 15,3 8,5 48 26 78 42 WNW 1000,3 30
13.12.2019 05:00:00 15,2 8,4 48 26 76 41 W 1000,0 30
13.12.2019 04:00:00 14,9 8,6 35 19 - - W 1001,3 30
13.12.2019 03:00:00 15,0 7,8 21 11 - - W 1002,1 30
13.12.2019 02:00:00 14,1 7,4 9 5 - - SW 1002,8 30
13.12.2019 01:00:00 13,1 6,4 24 13 - - SW 1003,6 30
13.12.2019 00:00:00 12,6 5,5 24 13 - - SSW 1004,3 30
12.12.2019 23:00:00 12,1 5,0 22 12 - - SW 1005,1 30
12.12.2019 22:00:00 11,7 4,8 21 11 - - SW 1006,0 30
12.12.2019 21:00:00 11,0 4,7 26 14 - - SW 1006,6 30
12.12.2019 20:00:00 10,0 5,2 22 12 - - WSW 1007,4 30
12.12.2019 19:00:00 10,4 5,2 26 14 - - W 1008,3 30
12.12.2019 18:00:00 11,7 3,7 35 19 - - W 1008,8 30
12.12.2019 17:00:00 11,7 3,7 22 12 - - WSW 1009,4 30
12.12.2019 16:00:00 12,7 3,6 31 17 - - W 1010,5 30
12.12.2019 15:00:00 13,2 3,0 26 14 - - W 1010,9 30
12.12.2019 14:00:00 13,0 3,4 22 12 - - WSW 1012,2 30
12.12.2019 13:00:00 13,4 3,5 16 9 - - SW 1013,5 30
12.12.2019 12:00:00 12,1 2,7 16 9 - - S 1015,0 30
12.12.2019 11:00:00 10,4 2,1 15 8 - - SW 1015,9 30
12.12.2019 10:00:00 9,2 1,4 9 5 - - W 1016,2 30
12.12.2019 09:00:00 9,0 1,2 35 19 - - W 1015,5 30
12.12.2019 08:00:00 9,5 0,9 29 16 - - W 1015,5 30
12.12.2019 07:00:00 8,4 1,1 15 8 - - S 1016,8 30
12.12.2019 06:00:00 9,5 0,6 16 9 - - WNW 1015,7 30
12.12.2019 05:00:00 9,2 0,6 24 13 - - WNW 1015,6 30
12.12.2019 04:00:00 9,3 1,0 34 18 - - W 1016,5 30
12.12.2019 03:00:00 9,5 0,9 35 19 - - W 1016,9 30
12.12.2019 02:00:00 9,7 1,0 39 21 - - W 1017,0 30
12.12.2019 01:00:00 9,6 0,9 28 15 - - W 1017,5 30
12.12.2019 00:00:00 9,2 1,6 26 14 - - WSW 1018,2 30
11.12.2019 23:00:00 10,6 -0,2 24 13 - - W 1017,9 30
11.12.2019 22:00:00 11,1 -1,4 15 8 - - WNW 1018,2 30
11.12.2019 21:00:00 11,3 -1,7 37 20 - - NW 1017,7 30
11.12.2019 20:00:00 11,1 -0,2 35 19 - - WNW 1016,9 30
11.12.2019 19:00:00 11,1 0,7 22 12 - - WNW 1017,2 30
11.12.2019 18:00:00 11,9 1,5 37 20 - - W 1015,7 30
11.12.2019 17:00:00 12,1 4,6 28 15 - - W 1015,3 30
11.12.2019 16:00:00 11,7 4,9 18 10 - - W 1015,2 30
11.12.2019 15:00:00 13,6 3,6 13 7 - - W 1014,7 30
11.12.2019 14:00:00 13,8 1,6 22 12 - - WSW 1015,3 30
11.12.2019 13:00:00 15,3 -0,5 31 17 - - W 1015,1 30
11.12.2019 12:00:00 16,3 -0,1 22 12 - - WSW 1016,7 30
11.12.2019 11:00:00 15,1 3,6 9 5 - - SW 1017,6 28
11.12.2019 10:00:00 10,8 4,0 9 5 - - W 1018,3 30
11.12.2019 09:00:00 5,8 4,0 8 4 - - N 1019,0 23
11.12.2019 08:00:00 3,6 2,3 4 2 - - N 1019,4 19
11.12.2019 07:00:00 3,9 2,4 5 3 - - NE 1019,7 30
11.12.2019 06:00:00 5,2 3,4 5 3 - - N 1020,0 23
11.12.2019 05:00:00 4,9 3,1 5 3 - - N 1020,5 21
11.12.2019 04:00:00 4,8 2,5 11 6 - - N 1021,3 18
11.12.2019 03:00:00 4,4 2,1 9 5 - - N 1021,9 30
11.12.2019 02:00:00 6,7 2,8 11 6 - - N 1021,9 30
11.12.2019 01:00:00 6,5 2,8 15 8 - - N 1022,5 30
11.12.2019 00:00:00 5,8 3,0 13 7 - - N 1022,9 30
10.12.2019 23:00:00 6,3 2,9 15 8 - - N 1023,1 27
10.12.2019 22:00:00 5,9 2,9 11 6 - - N 1022,9 19
10.12.2019 21:00:00 4,9 2,4 5 3 - - NE 1023,0 11
10.12.2019 20:00:00 6,6 3,5 0 0 - - N 1023,1 10
10.12.2019 19:00:00 8,0 3,4 9 5 - - NNE 1022,7 12
10.12.2019 18:00:00 9,9 2,9 4 2 - - E 1022,4 30
10.12.2019 17:00:00 14,0 2,9 11 6 - - S 1022,1 30
10.12.2019 16:00:00 16,1 3,2 4 2 - - NNE 1021,9 30
10.12.2019 15:00:00 16,7 2,8 4 2 - - NNE 1022,3 30
10.12.2019 14:00:00 16,2 3,2 8 4 - - WSW 1022,7 30
10.12.2019 13:00:00 14,7 2,7 9 5 - - WSW 1023,5 30

tt = temperature
td = dewpoint
ff = wind speed
fx = gusts
dd = wind direction
ppp = reduced air pressure
vv = visibility

Next stations